Preview of NWS' New Version of Forecast
This preview is not operational and should not be used for support decisions.

Regional Weather Roundup (RWR)

Issued by National Weather Service (NWS)

                            
000
ASUS46 KSEW 170910
RWRWA 

WASHINGTON REGIONAL WEATHER ROUNDUP
NATIONAL WEATHER SERVICE SEATTLE WA
200 AM PDT WED APR 17 2019

NOTE:"FAIR" INDICATES FEW OR NO CLOUDS BELOW 12,000 FEET WITH NO 
SIGNIFICANT WEATHER AND/OR OBSTRUCTIONS TO VISIBILITY.

WAZ507-509-555>559-171000-
SEATTLE, TACOMA, EVERETT, AND VICINITY
  
CITY           SKY/WX    TMP DP  RH WIND       PRES   REMARKS
EVERETT        CLOUDY    48  44  86 S15       30.15R                  
BOEING FIELD   CLOUDY    50  44  80 S7        30.19R                  
RENTON         CLOUDY    51  46  83 SE6       30.19R                  
SEATAC AIRPORT CLOUDY    49  45  86 SW8       30.18R                  
JBLM-MCCHORD   CLOUDY    48  48 100 SW9       30.20R                  
PUYALLUP       CLOUDY    48  48 100 VRB3      30.20R                  
BREMERTON      CLOUDY    47  45  93 SW16G25   30.17R                  
JBLM-FT LEWIS  CLOUDY    49  49  99 S10       30.20R                  
TACOMA NARROWS CLOUDY    48  45  89 S8        30.19R                  
$$
 
WAZ001-503-506-510-514-515-171000-
NORTH INTERIOR
  
CITY           SKY/WX    TMP DP  RH WIND       PRES   REMARKS
BELLINGHAM     CLOUDY    49  45  86 S5        30.14R                  
FRIDAY HARBOR  CLOUDY    47  45  93 S6        30.15R                  
EASTSOUND      CLOUDY    48  46  93 S9        30.13R                  
PORT ANGELES   CLOUDY    46  45  96 CALM      30.14S                  
EDIZ HOOK      CLOUDY    48  45  90 SW3       30.15S                  
PORT TOWNSEND  CLOUDY    48  46  93 W3        30.15R                  
NAS WHIDBEY    NOT AVBL                                               
ARLINGTON      CLOUDY    49  45  86 S8        30.16R                  
BURLINGTON     CLOUDY    50  46  87 CALM      30.16R                  
$$
 
WAZ020-022-039-040-504-511-512-171000-
SOUTHWEST INTERIOR
  
CITY           SKY/WX    TMP DP  RH WIND       PRES   REMARKS
SHELTON        LGT RAIN  48  45  89 SW8       30.18R FOG              
OLYMPIA        CLOUDY    48  46  93 SW5       30.21R                  
CHEHALIS       CLOUDY    48  48 100 CALM      30.22R                  
KELSO          LGT RAIN  49  48  97 CALM      30.25R                  
VANCOUVER      CLOUDY    51  46  83 VRB3      30.23R                  
SCAPPOOSE, OR  LGT RAIN  51  48  89 CALM      30.22R                  
PORTLAND, OR   CLOUDY    51  47  86 S6        30.24R                  
$$
 
WAZ021-516-517-171000-
WASHINGTON COAST
  
CITY           SKY/WX    TMP DP  RH WIND       PRES   REMARKS
FORKS          LGT RAIN  47  46  97 S6        30.16S FOG              
HOQUIAM        CLOUDY    49  49 100 SW10      30.21R                  
ASTORIA, OR    CLOUDY    49  46  90 SW7       30.22S                  
$$
 
WAZ019-023-024-040-567>569-171000-
CASCADE MOUNTAINS AND COLUMBIA GORGE
  
CITY           SKY/WX    TMP DP  RH WIND       PRES   REMARKS
STAMPEDE PASS  NOT AVBL                                               
TROUTDALE, OR  CLOUDY    51  46  83 CALM      30.23R                  
HOOD RIVER, OR CLOUDY    50  43  76 MISG      30.18R                  
THE DALLES, OR CLOUDY    52  42  69 NW15      30.15S                  
$$

WAZ026-027-041>044-520-521-171000-
EAST SLOPES
  
CITY           SKY/WX    TMP DP  RH WIND       PRES   REMARKS
OMAK           CLOUDY    51  34  52 SE10      30.00R                  
WENATCHEE      PTCLDY    47  35  63 N3        30.04R                  
ELLENSBURG     CLOUDY    47  39  74 NW18G24   30.07R                  
YAKIMA         MOCLDY    47  36  65 W5        30.07R                  
SUNNYSIDE ARPT CLOUDY    52  39  62 SW8       30.08                   
YAKIMA TC      FAIR      46  37  69 E10       30.06R                  
$$

WAZ028-034-035-171000-
COLUMBIA BASIN
  
CITY           SKY/WX    TMP DP  RH WIND       PRES   REMARKS
EPHRATA        PTCLDY    48  37  65 SW13      30.03R                  
MOSES LAKE     CLOUDY    53  37  54 SW8       30.04R                  
PASCO          CLOUDY    57  41  55 SW16      30.09R                  
RICHLAND ARPT  CLOUDY    56  41  56 S12       30.09                   
HERMISTON, OR  CLOUDY    54  41  61 SW14      30.11R                  
$$

WAZ036>038-171000-
NORTHEAST WASHINGTON
  
CITY           SKY/WX    TMP DP  RH WIND       PRES   REMARKS
SPOKANE GEIGER CLOUDY    46  38  73 SW12      30.02R                  
SPOKANE FELTS  CLOUDY    49  39  68 SW8       30.03R                  
FAIRCHILD AFB  CLOUDY    46  42  86 SW10      30.02R                  
COEURDALENE,ID LGT RAIN  47  39  74 SW5       30.03S                  
DEER PARK      CLOUDY    46  38  73 S7        30.02R                  
$$

WAZ029>033-171000-
SOUTHEAST WASHINGTON
  
CITY           SKY/WX    TMP DP  RH WIND       PRES   REMARKS
PULLMAN        CLOUDY    47  37  68 SW12      30.09R                  
LEWISTON, ID   CLOUDY    51  41  68 CALM      30.08S                  
WALLA WALLA    CLOUDY    53  41  63 S14       30.11R                  
PENDLETON, OR  CLOUDY    50  39  66 SW12      30.11S                  
$$